Simultaneous Nadir Overpasses (SNOs) Predictions

Prediction of SNOs between METOP-B and NPP Satellite Orbit:

Table of predicted SNOs for the next 14.0 days since TLE Epoch: 10/24/2014
Index Date (METOP-B) Time (METOP-B) Lat,Lon (METOP-B) SZA (METOP-B ) Date (NPP) Time (NPP) Lat,Lon (NPP) SZA (NPP ) Distance(km) Time Diff (sec)
1 11/04/2014 19:36:59 73.83,-119.77 89.27 11/04/2014 19:35:51 73.83,-122.29 89.31 78.15 68
2 11/04/2014 20:27:43 -73.72, 47.29 90.83 11/04/2014 20:26:33 -73.72, 45.29 90.80 62.61 70
3 11/04/2014 21:18:26 73.57,-145.73 89.03 11/04/2014 21:17:15 73.55,-147.00 89.04 39.92 71
4 11/04/2014 22:09:10 -73.46, 21.34 91.07 11/04/2014 22:07:57 -73.44, 20.57 91.07 24.60 73
5 11/04/2014 22:59:54 73.25,-171.79 88.75 11/04/2014 22:58:39 73.26,-171.73 88.76 2.33 75
6 11/04/2014 23:50:36 -73.24, -4.48 91.26 11/04/2014 23:49:23 -73.25, -4.39 91.25 3.12 73
7 11/05/2014 00:41:15 73.28, 162.95 88.80 11/05/2014 00:40:09 73.27, 162.87 88.80 2.78 66
8 11/05/2014 01:31:57 -73.28, -29.74 91.20 11/05/2014 01:30:53 -73.26, -29.79 91.21 2.08 64
9 11/05/2014 02:22:37 73.27, 137.57 88.81 11/05/2014 02:21:38 73.24, 137.58 88.78 3.47 59
10 11/05/2014 03:13:19 -73.26, -55.12 91.19 11/05/2014 03:12:23 -73.28, -55.20 91.17 3.13 56
11 11/05/2014 04:03:59 73.25, 112.20 88.81 11/05/2014 04:03:08 73.25, 112.17 88.82 0.92 51
12 11/05/2014 04:54:41 -73.25, -80.49 91.19 11/05/2014 04:53:52 -73.24, -80.49 91.19 0.50 49
13 11/05/2014 05:45:21 73.24, 86.83 88.82 11/05/2014 05:44:37 73.22, 86.88 88.80 3.05 44
14 11/05/2014 06:36:03 -73.23,-105.87 91.18 11/05/2014 06:35:22 -73.25,-105.89 91.15 2.88 41
15 11/05/2014 07:26:43 73.22, 61.45 88.83 11/05/2014 07:26:07 73.23, 61.47 88.83 1.04 36
16 11/05/2014 08:17:25 -73.21,-131.24 91.18 11/05/2014 08:16:51 -73.22,-131.19 91.17 1.70 34
17 11/05/2014 09:08:05 73.21, 36.08 88.83 11/05/2014 09:07:36 73.19, 36.18 88.82 3.68 29
18 11/05/2014 09:58:46 -73.25,-156.50 91.12 11/05/2014 09:58:21 -73.23,-156.59 91.14 3.46 25
19 11/05/2014 10:49:27 73.19, 10.70 88.84 11/05/2014 10:49:06 73.21, 10.78 88.85 2.90 21
20 11/05/2014 11:40:09 -73.18, 178.01 91.16 11/05/2014 11:39:50 -73.20, 178.11 91.15 3.50 19
21 11/05/2014 12:30:48 73.23, -14.56 88.89 11/05/2014 12:30:36 73.22, -14.63 88.89 2.26 12
22 11/05/2014 13:21:29 -73.22, 152.75 91.11 11/05/2014 13:21:19 -73.21, 152.71 91.12 1.64 10
23 11/05/2014 14:12:09 73.21, -39.94 88.90 11/05/2014 14:12:04 73.18, -39.92 88.87 2.98 5
24 11/05/2014 15:02:51 -73.20, 127.38 91.10 11/05/2014 15:02:49 -73.22, 127.31 91.08 3.13 2
25 11/05/2014 15:53:31 73.19, -65.31 88.91 11/05/2014 15:53:34 73.20, -65.33 88.91 0.65 3
26 11/05/2014 16:44:13 -73.19, 102.00 91.09 11/05/2014 16:44:18 -73.19, 102.01 91.10 0.35 5
27 11/05/2014 17:34:53 73.18, -90.68 88.91 11/05/2014 17:35:03 73.16, -90.62 88.89 2.84 10
28 11/05/2014 18:25:35 -73.17, 76.63 91.09 11/05/2014 18:25:48 -73.20, 76.61 91.06 3.16 13
29 11/05/2014 19:16:15 73.16,-116.06 88.92 11/05/2014 19:16:33 73.18,-116.03 88.93 1.67 18
30 11/05/2014 20:06:57 -73.16, 51.25 91.08 11/05/2014 20:07:17 -73.16, 51.31 91.08 2.06 20
31 11/05/2014 20:57:36 73.20,-141.32 88.97 11/05/2014 20:58:03 73.19,-141.43 88.96 3.62 27
32 11/05/2014 21:48:18 -73.19, 25.99 91.03 11/05/2014 21:48:47 -73.18, 25.91 91.04 3.04 29
33 11/05/2014 22:38:58 73.18,-166.70 88.98 11/05/2014 22:39:32 73.15,-166.72 88.95 3.45 34
34 11/05/2014 23:29:41 -73.13, 0.51 91.07 11/05/2014 23:30:16 -73.14, 0.62 91.06 3.87 35
35 11/06/2014 00:20:20 73.17, 167.93 88.99 11/06/2014 00:21:02 73.17, 167.87 88.98 1.87 42
36 11/06/2014 01:11:02 -73.16, -24.76 91.01 11/06/2014 01:11:46 -73.16, -24.79 91.02 1.21 44
37 11/06/2014 02:01:42 73.15, 142.56 88.99 11/06/2014 02:02:31 73.13, 142.58 88.97 2.46 49
38 11/06/2014 02:52:24 -73.15, -50.13 91.01 11/06/2014 02:53:16 -73.17, -50.19 90.99 3.29 52
39 11/06/2014 03:43:04 73.14, 117.18 89.00 11/06/2014 03:44:01 73.14, 117.17 89.00 0.97 57
40 11/06/2014 04:33:46 -73.13, -75.50 91.00 11/06/2014 04:34:45 -73.13, -75.49 91.00 0.61 59
41 11/06/2014 05:24:26 73.12, 91.81 89.00 11/06/2014 05:25:30 73.11, 91.88 88.99 2.68 64
42 11/06/2014 06:15:08 -73.12,-100.88 91.00 11/06/2014 06:16:15 -73.15,-100.89 90.97 3.56 67
43 11/06/2014 07:05:48 73.10, 66.43 89.01 11/06/2014 07:07:00 73.12, 66.47 89.02 2.33 72
44 11/06/2014 07:56:30 -73.10,-126.25 90.99 11/06/2014 07:57:44 -73.11,-126.19 90.98 2.44 74
45 11/06/2014 08:47:14 72.89, 40.63 88.82 11/06/2014 08:48:26 72.93, 41.50 88.85 29.17 72
46 11/06/2014 09:37:58 -72.78,-152.27 91.28 11/06/2014 09:39:09 -72.87,-151.05 91.21 41.19 71
47 11/06/2014 10:28:42 72.57, 14.62 88.53 11/06/2014 10:29:50 72.64, 16.73 88.57 70.77 68
48 11/06/2014 11:19:25 -72.51,-178.16 91.52 11/06/2014 11:20:32 -72.53,-175.73 91.53 81.32 67
